Back to catalog

FENGYUN 1C DEB

AliveSSO
NORAD 30996·DEBRIS·🇨🇳 China

Launched May 10, 1999 from Taiyuan Satellite Launch Center

Loading…

Next Passes (next 24 hours)

TLE

FreshSource: Space-Track

Epoch: Sep 13, 2026, 17:31 UTC

1 30996U 99025BCN 26256.73047392  .00001215  00000-0  42427-3 0  9999
2 30996  98.9342 176.8577 0048324 201.9799 221.6190 14.36533207 15082

Track FENGYUN 1C DEB in real time with AllMySat

Download on the App Store